EW1931 Weather Reports


time (UTC)temp
C
wind
direction
speed
KPH
gust
KPH
rain 1hr
cm
rain 24hr
cm
rain mn
cm
humidity
%
barometer
mb
20260509220036 17 233 8.0 17.7 0.00 0.00 0.00 44 928.5
20260509214521 17 184 9.7 16.1 0.00 0.00 0.00 46 928.5
20260509213022 17 220 1.6 14.5 0.00 0.00 0.00 45 928.5
20260509211543 17 215 12.9 22.5 0.00 0.00 0.00 45 928.6
20260509210020 17 218 14.5 20.9 0.00 0.00 0.00 45 928.6
20260509204519 17 135 6.4 16.1 0.00 0.00 0.00 44 928.4
20260509203033 17 171 9.7 17.7 0.00 0.00 0.00 41 928.3
20260509201521 17 324 6.4 20.9 0.00 0.00 0.00 43 928.3
20260509200016 17 232 14.5 22.5 0.00 0.00 0.00 42 928.3
20260509194547 17 298 4.8 14.5 0.00 0.00 0.00 37 928.4
20260509193046 17 350 6.4 12.9 0.00 0.00 0.00 37 928.4
20260509191528 18 234 6.4 19.3 0.00 0.00 0.00 36 928.4
20260509190026 17 10 3.2 6.4 0.00 0.00 0.00 38 928.4
20260509184504 17 314 3.2 8.0 0.00 0.00 0.00 39 928.4
20260509183011 17 310 3.2 11.3 0.00 0.00 0.00 39 928.2
20260509181554 16 300 3.2 6.4 0.00 0.00 0.00 39 928.2
20260509180045 16 322 4.8 9.7 0.00 0.00 0.00 40 928.2
20260509174524 16 279 1.6 6.4 0.00 0.00 0.00 40 928.1
20260509173022 16 180 1.6 6.4 0.00 0.00 0.00 41 928.0
20260509171504 16 313 1.6 8.0 0.00 0.00 0.00 42 927.9
20260509170003 16 113 6.4 12.9 0.00 0.00 0.00 43 927.7
20260509164546 16 107 6.4 9.7 0.00 0.00 0.00 42 927.7
20260509163055 16 209 0.0 11.3 0.00 0.00 0.00 40 927.7
20260509161530 16 147 1.6 8.0 0.00 0.00 0.00 42 927.6
20260509160027 15 200 3.2 6.4 0.00 0.00 0.00 45 927.5
20260509154523 15 195 3.2 8.0 0.00 0.00 0.00 48 927.5
20260509153023 14 213 9.7 12.9 0.00 0.00 0.00 50 927.4
20260509151518 13 251 4.8 8.0 0.00 0.00 0.00 50 927.3
20260509150014 13 243 1.6 4.8 0.00 0.00 0.00 52 927.3
20260509144511 12 49 1.6 6.4 0.00 0.00 0.00 53 927.2
20260509143010 11 49 0.0 4.8 0.00 0.00 0.00 57 927.2
20260509141552 11 43 4.8 8.0 0.00 0.00 0.00 57 927.2
20260509140052 11 315 3.2 6.4 0.00 0.00 0.00 57 927.1
20260509134536 10 315 3.2 9.7 0.00 0.00 0.00 58 926.8
20260509133031 10 299 4.8 9.7 0.00 0.00 0.00 58 926.8
20260509131516 10 320 3.2 11.3 0.00 0.00 0.00 58 926.7
20260509130015 10 5 6.4 11.3 0.00 0.00 0.00 58 926.4
20260509124602 10 15 9.7 14.5 0.00 0.00 0.00 58 926.3
20260509123050 10 18 11.3 17.7 0.00 0.00 0.00 57 926.1
20260509121534 10 69 8.0 16.1 0.00 0.00 0.00 58 925.8
20260509120028 10 342 9.7 16.1 0.00 0.00 0.00 57 925.6
20260509114507 10 351 12.9 17.7 0.00 0.00 0.00 57 925.7
20260509113006 10 355 8.0 11.3 0.00 0.00 0.00 57 925.6
20260509111545 10 345 11.3 14.5 0.00 0.00 0.00 58 925.5
20260509110042 11 37 0.0 6.4 0.00 0.00 0.00 58 925.2
20260509104535 11 41 6.4 11.3 0.00 0.00 0.00 58 925.3
20260509103029 11 30 4.8 12.9 0.00 0.00 0.00 57 925.2
20260509101527 12 124 11.3 12.9 0.00 0.00 0.00 56 925.1
20260509100024 12 60 6.4 12.9 0.00 0.00 0.00 55 924.8
20260509094521 12 78 9.7 17.7 0.00 0.00 0.00 56 924.7
20260509093018 11 205 4.8 11.3 0.00 0.00 0.00 56 924.5
20260509091526 12 271 9.7 14.5 0.00 0.00 0.00 56 924.2
20260509090015 12 56 8.0 16.1 0.00 0.00 0.00 56 924.1
20260509084604 12 57 14.5 19.3 0.00 0.00 0.00 56 923.9
20260509083058 11 49 12.9 17.7 0.00 0.00 0.00 56 923.9
20260509081540 12 28 14.5 19.3 0.00 0.00 0.00 55 923.8
20260509080058 11 30 11.3 14.5 0.00 0.00 0.00 54 923.9
20260509074522 11 26 9.7 14.5 0.00 0.00 0.00 54 923.9
20260509073037 11 43 9.7 14.5 0.00 0.00 0.00 53 923.8
20260509071503 11 43 11.3 14.5 0.00 0.00 0.00 51 923.8
20260509070004 12 63 8.0 11.3 0.00 0.00 0.00 49 923.8
20260509064548 13 44 6.4 9.7 0.00 0.00 0.00 47 923.6
20260509063046 13 5 8.0 12.9 0.00 0.00 0.00 46 923.4
20260509061527 13 328 8.0 14.5 0.00 0.00 0.00 44 923.5
20260509060027 13 317 11.3 19.3 0.00 0.00 0.00 42 923.4
20260509054502 14 331 16.1 22.5 0.00 0.00 0.00 40 923.4
20260509053008 14 306 16.1 27.4 0.00 0.00 0.00 37 923.2
20260509051555 14 311 14.5 24.1 0.00 0.00 0.00 35 923.0
20260509050044 15 331 17.7 20.9 0.00 0.00 0.00 34 922.7
20260509044526 15 342 14.5 20.9 0.00 0.00 0.00 33 922.5
20260509043039 15 349 11.3 16.1 0.00 0.00 0.00 33 922.3
20260509041508 15 346 9.7 14.5 0.00 0.00 0.00 31 922.2
20260509040007 15 351 12.9 17.7 0.00 0.00 0.00 30 922.2
20260509034606 16 348 11.3 20.9 0.00 0.00 0.00 29 922.0
20260509033049 16 360 12.9 17.7 0.00 0.00 0.00 30 921.8
20260509031549 16 355 11.3 14.5 0.00 0.00 0.00 29 921.5
20260509030037 17 355 9.7 14.5 0.00 0.00 0.00 28 921.2
20260509024530 17 355 12.9 19.3 0.00 0.00 0.00 27 921.1
20260509023023 18 360 17.7 27.4 0.00 0.00 0.00 26 921.0
20260509021522 19 9 16.1 24.1 0.00 0.00 0.00 25 920.9
20260509020017 20 355 16.1 27.4 0.00 0.00 0.00 25 920.9
20260509014517 20 360 20.9 30.6 0.00 0.00 0.00 25 920.8
20260509013035 21 355 27.4 40.2 0.00 0.00 0.00 25 920.7
20260509011515 21 328 27.4 38.6 0.00 0.00 0.00 24 920.8
20260509010023 22 323 27.4 38.6 0.00 0.00 0.00 22 920.7
20260509004533 22 310 24.1 33.8 0.00 0.00 0.00 20 920.8
20260509003100 22 338 29.0 38.6 0.00 0.00 0.00 20 920.7
20260509001557 22 315 25.7 40.2 0.00 0.00 0.00 19 920.8
20260509001509 22 305 25.7 40.2 0.00 0.00 0.00 19 920.8
20260509000039 23 314 27.4 41.8 0.00 0.00 0.00 18 920.7
20260508234538 23 327 24.1 40.2 0.00 0.00 0.00 17 920.7
20260508233021 23 309 30.6 43.5 0.00 0.00 0.00 17 920.5
20260508231520 23 317 30.6 43.5 0.00 0.00 0.00 15 920.6
20260508230023 24 323 27.4 49.9 0.00 0.00 0.00 17 920.5
20260508224501 24 324 27.4 41.8 0.00 0.00 0.00 17 920.5
20260508223051 23 300 33.8 48.3 0.00 0.00 0.00 18 920.4
20260508221544 24 305 30.6 48.3 0.00 0.00 0.00 16 920.4